CW5709 Weather Reports


time (UTC)temp
F
wind
direction
speed
knots
gust
knots
rain 1hr
in
rain 24hr
in
rain mn
in
humidity
%
barometer
mb
20260505171511 60 0.0 0.0 0.00 0.00 0.00 71 1016.8
20260505164519 58 0.0 0.0 0.00 0.00 0.00 74 1016.8
20260505163022 57 0.0 0.0 0.00 0.00 0.00 74 1016.8
20260505161524 57 0.0 0.0 0.00 0.00 0.00 74 1016.8
20260505153021 56 0.0 0.0 0.00 0.00 0.00 77 1016.6
20260505151525 56 0.0 0.0 0.00 0.00 0.00 78 1016.5
20260505120007 54 0.0 0.0 0.00 0.00 0.00 81 1015.5
20260505114510 54 0.0 0.0 0.00 0.00 0.00 81 1015.4
20260505113018 54 0.0 0.0 0.00 0.00 0.00 81 1015.5
20260505111521 54 0.0 0.0 0.00 0.00 0.00 81 1015.5
20260505101519 55 0.0 0.0 0.00 0.00 0.00 81 1015.2
20260505100024 55 0.0 0.0 0.00 0.00 0.00 82 1015.1
20260505094530 55 0.0 0.0 0.00 0.00 0.00 82 1015.1
20260505093014 54 0.0 0.0 0.00 0.00 0.00 82 1015.1
20260505091515 54 0.0 0.0 0.00 0.00 0.00 82 1015.1
20260505090019 54 0.0 0.0 0.00 0.00 0.00 83 1014.8
20260505084540 54 0.0 0.0 0.00 0.00 0.00 83 1014.9
20260505083027 54 0.0 0.0 0.00 0.00 0.00 83 1014.9
20260505081518 54 0.0 0.0 0.00 0.00 0.00 84 1014.9
20260505080015 53 0.0 0.0 0.00 0.00 0.00 84 1015.1
20260505074520 53 0.0 0.0 0.00 0.00 0.00 84 1015.0
20260505073025 53 0.0 0.0 0.00 0.00 0.00 84 1014.9
20260505071529 53 0.0 0.0 0.00 0.00 0.00 84 1014.8
20260505070016 53 0.0 0.0 0.00 0.00 0.00 83 1014.9
20260505064520 53 0.0 0.0 0.00 0.00 0.00 83 1014.8
20260505063031 53 0.0 0.0 0.00 0.00 0.00 82 1014.9
20260505061527 53 0.0 0.0 0.00 0.00 0.00 82 1014.8
20260505060033 54 0.0 0.0 0.00 0.00 0.00 82 1014.9
20260505054518 54 0.0 0.0 0.00 0.00 0.00 81 1014.9
20260505053022 54 0.0 0.0 0.00 0.00 0.00 81 1014.6
20260505051522 54 0.0 0.0 0.00 0.00 0.00 80 1014.5
20260505041507 56 0.0 0.0 0.00 0.00 0.00 78 1013.7
20260505040009 56 0.0 0.0 0.00 0.00 0.00 77 1013.5
20260505034514 57 0.0 0.0 0.00 0.00 0.00 76 1013.2
20260505033015 57 0.0 0.0 0.00 0.00 0.00 75 1012.9
20260505031516 58 0.0 0.0 0.00 0.00 0.00 74 1012.7
20260505030008 59 0.0 0.0 0.00 0.00 0.00 73 1012.7
20260505024510 60 0.0 0.0 0.00 0.00 0.00 71 1012.4
20260505023015 61 0.0 0.0 0.00 0.00 0.00 70 1012.3
20260505021513 61 0.0 0.0 0.00 0.00 0.00 69 1012.2
20260505020016 62 0.0 0.0 0.00 0.00 0.00 67 1012.1
20260505014507 63 0.0 0.0 0.00 0.00 0.00 66 1012.2
20260505013010 64 0.0 0.0 0.00 0.00 0.00 65 1012.3
20260505011537 66 0.0 0.0 0.00 0.00 0.00 63 1012.3
20260505010020 67 0.0 0.0 0.00 0.00 0.00 61 1012.4
20260505003007 69 0.0 0.0 0.00 0.00 0.00 59 1012.3
20260505001512 69 0.0 0.0 0.00 0.00 0.00 58 1012.3
20260505000021 70 0.0 0.0 0.00 0.00 0.00 57 1012.4
20260504234520 71 0.0 0.0 0.00 0.00 0.00 56 1012.3
20260504233021 72 0.0 0.0 0.00 0.00 0.00 56 1012.3
20260504231509 72 0.0 0.0 0.00 0.00 0.00 55 1012.4
20260504230014 73 0.0 0.0 0.00 0.00 0.00 52 1012.5
20260504224518 76 0.0 0.0 0.00 0.00 0.00 49 1012.7
20260504223025 76 0.0 0.0 0.00 0.00 0.00 49 1012.8
20260504221523 77 0.0 0.0 0.00 0.00 0.00 49 1012.9
20260504220012 77 0.0 0.0 0.00 0.00 0.00 48 1013.0
20260504214519 77 0.0 0.0 0.00 0.00 0.00 47 1013.0
20260504213023 76 0.0 0.0 0.00 0.00 0.00 49 1013.1
20260504204516 72 0.0 0.0 0.00 0.00 0.00 54 1013.8
20260504203021 70 0.0 0.0 0.00 0.00 0.00 56 1013.9
20260504201524 68 0.0 0.0 0.00 0.00 0.00 59 1014.1
20260504200029 68 0.0 0.0 0.00 0.00 0.00 60 1014.1
20260504193017 65 0.0 0.0 0.00 0.00 0.00 64 1014.4
20260504191507 64 0.0 0.0 0.00 0.00 0.00 66 1014.5
20260504190008 63 0.0 0.0 0.00 0.00 0.00 68 1014.5
20260504184513 62 0.0 0.0 0.00 0.00 0.00 70 1014.6
20260504183020 61 0.0 0.0 0.00 0.00 0.00 70 1014.7
20260504181522 60 0.0 0.0 0.00 0.00 0.00 72 1014.8
20260504180021 60 0.0 0.0 0.00 0.00 0.00 72 1014.8
20260504174513 59 0.0 0.0 0.00 0.00 0.00 74 1014.8
20260504173020 58 0.0 0.0 0.00 0.00 0.00 75 1014.7